Preview of NWS' New Version of Forecast
This preview is not operational and should not be used for support decisions.

Regional Weather Roundup (RWR)

Issued by National Weather Service (NWS)

                            
000
ASCA42 TJSJ 171410
RWRPR 
PUERTO RICO/U.S. VIRGIN ISLANDS HOURLY WEATHER ROUNDUP
NATIONAL WEATHER SERVICE SAN JUAN PR
1000 AM AST TUE SEP 17 2019

PRZ001>002-007>008-010-171500-
PUERTO RICO
  
CITY           SKY/WX    TMP DP  RH WIND       PRES   REMARKS
SAN JUAN LMM   PTSUNNY   90  77  66 E16G22    29.94R HX 102           
AGUADILLA      SUNNY     86  75  70 SE7       29.95S HX  95           
CEIBA          SUNNY     88  79  74 E14G22    29.96S HX 102           
$$

VIZ001>002-171500-
U.S. VIRGIN ISLANDS
  
CITY           SKY/WX    TMP DP  RH WIND       PRES   REMARKS
CHARLOTTE AMA  SUNNY     88  75  66 SE20G25   29.94R HX  97           
CHRISTIANSTED  PTSUNNY   86  75  70 E21       29.96R HX  95           
$$

HOURLY WEATHER ROUNDUP FOR THE NEWS MEDIA
  
CITY           SKY/WX    TMP DP  RH WIND       PRES   REMARKS
ORLANDO        FAIR      84  69  60 NW7       29.98R                  
NEW YORK       FAIR      70  51  51 NE12      30.16R                  
NEWARK         FAIR      68  49  50 NE9       30.16R                  
CHICAGO        PTSUNNY   68  63  84 E7        30.19S                  
HARTFORD       FAIR      66  49  54 N5        30.10S                  
BOSTON         FAIR      67  46  47 N10G17    30.12R                  
DALLAS         MOSUNNY   80  69  69 E7        30.00S                  
PHILADELPHIA   FAIR      71  50  47 E10G18    30.15R                  
LOS ANGELES    MOCLDY    68  62  81 SE6       29.95                   
WASHINGTON DC  PTSUNNY   72  63  73 E10G18    30.12R